Lapse_Rate
5.8 6.1 6.2 6.1 5.9 5.9 6.2 6.3 6.1 6.1 6.2 6.4 6.4 6.4 6.3 6.4 6.3 6.4 6.1 5.9 5.5 5.5 5.6 5.6 5.5 5.6 5.5 5.3 5.0 4.9 4.4 4.9 4.5 5.0 4.9 5.0 4.8 4.8 4.8 4.8 4.9 4.9 4.7 4.7 4.8
6.0 6.1 6.1 6.3 6.5 6.5 6.4 6.5 6.5 6.3 6.3 6.4 6.5 6.5 6.4 6.3 6.2 6.1 6.2 6.4 6.0 5.4 5.3 5.2 5.3 5.4 5.3 5.3 5.0 4.8 4.7 4.6 5.0 4.8 4.7 4.8 4.7 4.6 4.8 4.8 5.0 4.7 4.5 4.4 4.7
6.7 6.7 6.5 6.5 6.6 6.6 6.6 6.6 6.5 6.5 6.5 6.5 6.5 6.5 6.4 6.4 6.3 6.0 6.1 6.1 6.0 5.5 5.2 5.2 5.2 5.1 5.1 5.0 5.1 4.9 4.9 5.1 4.8 4.6 4.6 4.5 4.5 4.4 4.5 5.1 4.7 4.3 4.4 4.5 4.5
6.9 7.0 7.0 7.0 6.8 6.8 6.9 6.9 6.7 6.6 6.6 6.3 6.4 6.6 6.6 6.3 6.0 5.6 5.7 5.7 5.5 5.7 5.6 5.2 5.1 5.1 5.0 4.9 5.1 4.9 5.2 5.0 5.0 4.6 4.5 4.4 4.6 4.4 4.5 5.0 4.4 4.4 4.3 4.3 4.3
7.4 7.5 7.5 7.4 7.4 7.2 7.0 7.0 7.0 6.9 6.9 6.7 6.4 6.5 6.5 6.3 6.1 5.8 5.6 5.5 5.5 5.4 5.7 5.4 5.0 4.9 5.0 5.1 5.1 5.0 5.3 5.1 4.9 4.9 4.5 4.4 4.7 4.1 5.3 4.7 4.1 4.3 4.3 4.2 4.1
7.2 7.3 7.3 7.3 7.3 7.3 7.4 7.3 7.4 7.4 7.3 7.0 6.8 6.5 6.6 6.4 5.9 5.9 5.8 5.3 5.5 5.4 5.4 5.3 5.2 5.0 4.9 5.1 5.0 5.2 5.1 5.0 5.0 4.7 4.4 4.3 4.6 4.2 5.5 4.7 4.5 4.5 4.5 4.4 4.3
7.1 7.1 7.1 7.1 7.1 7.1 7.1 7.1 7.1 7.3 7.4 7.4 7.3 7.0 6.7 6.2 5.8 5.8 5.6 5.5 5.3 5.2 5.3 5.2 5.1 5.2 5.3 5.2 5.1 5.0 4.9 4.8 5.1 5.1 4.5 4.4 4.7 5.2 4.8 4.7 4.7 4.7 4.7 4.7 4.5
6.9 6.9 7.0 7.0 6.9 7.0 7.1 7.0 7.0 7.2 7.3 7.5 7.5 7.4 7.1 6.6 6.1 5.6 5.4 5.2 5.3 5.4 5.3 5.1 5.3 5.4 5.6 5.4 5.0 4.8 4.8 4.7 5.1 4.9 4.6 4.4 4.6 5.0 4.7 4.6 4.4 4.5 4.4 4.5 4.6
6.7 6.8 6.8 6.8 6.9 6.9 6.9 6.9 7.0 7.1 7.2 7.6 7.6 7.4 7.2 6.9 6.3 5.5 5.2 5.2 5.3 5.3 5.3 5.4 5.5 5.5 5.4 5.1 4.7 5.1 5.3 4.9 4.6 4.9 4.4 4.4 4.8 4.9 4.7 4.5 4.5 4.6 4.7 4.8 4.8
6.6 6.7 6.7 6.8 6.9 7.0 7.0 7.0 7.0 7.0 7.3 7.5 7.7 7.6 7.2 7.1 6.4 5.6 5.1 5.3 5.3 5.5 5.5 5.4 5.5 5.5 5.5 5.1 5.8 5.6 4.8 4.8 5.0 4.4 4.4 4.4 5.0 5.4 4.9 4.8 5.1 5.1 5.0 5.1 5.2
6.9 6.8 6.9 7.0 7.0 7.2 7.3 7.2 7.1 7.0 7.1 7.3 7.6 7.5 7.4 7.0 6.4 5.9 5.5 5.5 5.6 5.4 5.5 5.6 5.4 5.7 5.3 5.5 5.2 5.4 5.1 4.9 5.0 4.8 4.4 4.9 4.8 5.9 5.3 5.3 5.8 5.6 5.2 5.3 5.2
6.9 6.9 6.9 6.7 6.8 7.0 7.2 7.1 7.1 7.3 7.2 7.5 7.8 7.8 7.3 6.8 6.4 6.2 6.1 5.6 5.6 5.6 5.6 5.7 6.0 5.8 5.9 5.7 5.6 5.4 5.0 5.1 5.1 5.0 4.5 4.7 5.4 5.6 6.2 6.6 6.1 5.9 5.7 5.5 5.0
6.6 6.3 6.1 6.4 6.2 6.4 6.6 6.7 6.8 7.0 7.2 7.5 7.8 7.9 7.3 6.7 6.5 6.4 6.3 5.9 5.8 5.7 5.7 5.8 5.8 6.1 5.9 5.8 5.6 5.5 5.2 5.1 4.8 4.9 4.8 4.8 5.3 6.2 6.3 6.1 5.9 5.5 5.2 5.1 4.7
5.8 5.5 5.1 5.1 4.9 5.4 5.8 6.1 6.2 6.3 6.7 7.4 7.6 7.4 7.2 6.5 6.2 6.3 6.2 6.1 6.0 5.9 5.9 6.1 6.1 6.1 6.0 5.9 5.7 5.3 5.7 5.3 4.9 4.5 5.0 5.1 5.4 5.5 5.8 5.5 5.4 4.9 4.7 4.7 4.6
5.1 4.9 4.8 4.2 4.7 5.1 5.2 5.5 5.5 5.8 6.5 7.3 7.0 6.9 6.9 6.6 6.5 6.4 6.2 6.1 6.2 6.1 6.1 6.2 6.1 6.0 5.9 5.7 5.6 5.4 5.5 5.3 5.1 4.6 4.5 4.9 4.7 5.5 5.4 5.4 5.2 4.8 4.7 4.7 4.9
5.0 5.1 5.6 5.5 5.4 5.6 5.4 6.1 6.4 6.4 6.5 7.1 6.7 6.8 6.8 6.4 6.4 6.4 6.3 6.2 6.3 6.2 6.2 6.2 6.0 5.8 5.7 5.7 5.5 5.5 5.3 5.3 5.1 4.6 5.2 4.9 4.7 6.4 5.2 5.3 5.1 4.8 4.8 5.0 5.1
5.9 6.2 6.1 5.7 5.7 6.2 6.6 6.9 7.2 7.3 7.5 7.2 6.7 6.7 6.6 6.5 6.4 6.4 6.4 6.4 6.2 6.2 6.1 6.2 6.1 6.0 5.9 5.6 5.5 5.4 5.3 6.3 6.1 5.8 6.7 5.1 4.6 6.0 5.4 5.4 5.0 4.9 5.0 5.1 5.1
6.2 6.0 6.1 5.6 6.1 7.1 6.9 7.1 7.5 7.7 8.0 7.4 7.1 6.8 6.6 6.5 6.4 6.4 6.2 6.2 6.1 6.1 5.9 6.2 6.5 5.8 5.8 5.7 5.5 5.6 5.7 6.4 6.8 7.0 6.9 4.7 5.3 5.7 5.5 5.4 5.2 5.3 5.3 5.2 5.1
6.3 6.5 6.3 6.0 6.8 7.4 7.1 7.0 7.3 7.7 8.0 7.5 7.4 7.0 6.6 6.5 6.5 6.2 5.9 6.0 6.1 5.9 5.8 6.0 6.0 6.0 5.8 5.8 5.6 5.4 5.3 5.8 5.6 5.2 5.6 6.5 5.6 5.6 5.5 5.4 5.5 5.3 5.1 4.9 4.9
6.4 6.8 6.9 7.5 7.5 7.3 6.9 6.9 7.3 7.9 7.9 8.0 7.6 7.1 6.8 6.4 6.4 6.2 6.2 6.0 5.9 5.8 5.7 5.8 5.9 6.1 5.9 5.6 5.5 5.4 5.6 5.6 5.6 6.3 6.3 7.0 6.1 6.6 5.8 5.5 5.2 5.0 5.2 4.8 4.5
6.8 7.2 7.3 7.2 7.0 7.2 7.1 7.0 7.3 7.8 7.7 7.7 7.9 7.4 6.8 6.5 6.2 6.3 6.1 6.0 5.8 5.8 5.8 5.8 5.9 5.9 5.9 5.8 5.5 5.6 5.3 5.5 5.5 5.1 6.1 6.6 7.0 5.9 5.7 5.4 5.2 5.2 5.0 4.7 4.4
7.0 6.6 7.1 7.3 7.1 7.0 7.0 7.4 7.5 7.7 7.8 7.8 7.6 7.4 6.9 6.4 6.1 6.1 6.1 6.1 5.9 5.8 5.9 6.0 5.8 5.8 5.6 6.0 5.7 5.6 5.3 5.5 5.8 5.3 4.7 4.6 5.9 5.9 5.7 5.6 5.2 5.1 4.7 4.5 4.5
6.6 7.3 7.0 7.3 7.2 7.3 7.3 7.5 7.5 7.6 7.5 7.6 7.4 7.0 6.6 6.4 6.1 6.1 6.0 5.9 5.8 5.8 5.7 5.7 5.7 6.0 6.0 5.6 5.5 5.4 5.7 5.5 5.3 4.9 5.0 5.4 6.4 5.8 5.7 5.5 5.0 5.0 4.6 4.5 4.4
6.7 6.8 7.0 7.1 7.1 7.3 7.5 7.5 7.6 7.6 7.7 7.4 7.0 6.7 6.4 6.3 6.0 6.0 6.0 5.9 5.8 5.8 5.6 5.6 5.8 6.0 6.8 6.1 6.0 5.8 5.8 5.5 5.2 4.9 5.4 4.9 5.4 5.7 5.4 5.0 4.7 4.7 4.6 4.4 4.3
6.9 6.8 6.9 7.1 7.3 7.3 7.4 7.5 7.5 7.7 7.5 7.0 6.7 6.5 6.3 6.1 6.0 5.9 5.9 5.9 5.7 5.7 5.7 5.6 5.6 5.6 5.8 6.1 5.9 5.7 5.5 5.2 4.7 4.8 4.4 5.2 4.7 4.8 4.7 4.6 4.6 4.5 4.5 4.2 4.2
6.9 6.9 7.0 7.0 7.2 7.3 7.4 7.5 7.4 7.4 7.1 6.9 6.5 6.4 6.2 6.1 6.0 6.0 5.7 5.5 5.7 5.8 5.6 5.3 5.0 5.1 5.7 6.1 5.4 5.1 5.2 4.8 4.5 4.4 4.0 4.0 4.6 4.4 4.4 4.4 4.4 4.5 4.2 4.1 4.1
7.5 7.2 6.9 7.0 7.1 7.2 7.5 7.7 7.4 7.1 7.0 6.6 6.4 6.2 6.2 6.1 5.9 5.7 5.5 5.5 5.5 5.4 5.2 5.1 5.0 5.0 5.7 5.5 5.1 5.4 5.1 4.8 4.5 4.3 4.3 3.9 4.2 4.1 4.1 4.2 4.3 4.4 4.0 4.0 4.0
Wind_Speed
22 22 22 22 22 21 20 20 23 23 21 14 13 12 11 16 18 5 4 3 2 2 2 5 4 6 4 4 2 2 5 8 6 6 1 3 3 3 0 4 3 4 2 4 13
23 22 23 24 23 22 21 21 21 22 23 21 18 12 13 13 12 9 4 5 3 2 3 6 6 8 4 5 4 6 4 6 2 3 2 2 4 3 5 7 7 7 6 5 16
21 23 24 23 24 24 23 21 22 20 20 20 19 13 11 13 10 2 7 4 5 4 1 1 4 4 5 4 6 5 6 4 4 5 3 4 5 4 6 11 11 9 8 11 16
22 22 22 23 24 24 23 24 20 20 19 19 18 10 11 4 7 3 5 3 6 5 5 4 4 4 4 6 5 5 8 7 1 1 2 5 4 7 12 15 3 5 3 13 17
21 21 21 22 23 24 24 23 21 18 18 16 16 6 4 6 8 5 3 3 5 4 4 4 5 3 5 3 5 10 7 4 7 5 7 6 13 12 18 12 9 4 6 11 13
21 21 21 22 23 23 24 24 23 20 14 13 12 4 3 13 4 3 3 3 3 4 3 3 3 2 2 4 7 1 6 9 8 11 8 8 15 3 9 1 9 11 11 10 12
22 21 22 23 23 24 24 24 24 23 17 11 9 2 6 14 1 3 1 2 2 2 2 2 2 5 4 4 2 2 8 10 12 7 6 3 10 14 13 5 8 9 8 9 10
23 22 23 23 24 26 26 26 24 21 17 8 3 2 6 1 1 4 5 3 4 3 3 4 1 1 3 1 2 5 4 6 5 5 3 4 10 4 2 5 7 7 7 8 11
24 24 24 23 24 27 29 28 23 13 5 5 5 3 5 1 3 3 5 4 5 6 5 4 1 1 4 6 5 5 7 7 4 4 3 9 9 2 3 5 8 7 8 9 9
24 23 25 23 24 26 31 27 8 3 4 3 1 4 6 3 3 4 2 6 2 7 4 3 3 6 5 8 5 4 6 6 9 3 6 11 19 18 17 14 14 13 10 9 4
23 22 24 26 24 25 19 6 3 5 5 7 4 2 2 5 5 3 3 6 5 4 6 4 7 9 8 10 5 3 6 11 10 4 6 15 17 17 15 13 13 13 9 4 4
25 24 22 24 23 23 7 6 3 3 9 11 14 10 5 2 4 7 6 7 6 9 5 5 10 3 2 4 7 8 9 11 9 2 4 12 20 16 6 2 4 6 6 4 3
21 21 21 23 23 6 2 6 4 2 6 5 6 7 6 9 6 9 10 4 7 7 9 10 3 6 3 5 6 9 11 8 7 6 8 11 11 1 2 3 3 5 6 3 1
29 25 20 17 13 3 5 4 2 2 5 6 8 6 6 6 5 3 6 4 5 6 4 6 1 4 4 5 8 7 3 4 3 5 5 4 6 4 2 1 3 5 5 1 2
27 23 11 5 6 7 3 0 2 3 5 9 6 4 6 6 9 4 2 4 7 5 4 2 3 4 6 3 8 2 2 2 3 5 6 5 4 2 3 4 6 7 4 2 3
25 21 11 4 3 10 3 1 3 4 8 6 6 8 9 5 5 5 4 2 1 3 4 7 1 3 3 2 2 7 2 2 2 2 4 4 4 3 2 2 4 5 3 5 7
29 21 12 8 6 6 3 2 5 7 2 3 4 7 10 7 6 6 5 6 4 3 3 4 4 2 2 4 4 5 4 3 4 3 2 3 5 6 3 5 3 2 5 8 7
24 23 11 13 6 5 3 3 9 4 3 1 1 6 7 6 3 5 6 5 2 1 2 4 4 5 3 3 1 5 3 3 4 2 2 4 6 1 0 2 1 3 5 8 10
28 4 4 6 10 4 3 7 3 3 2 1 2 3 3 3 3 5 6 4 2 3 4 4 3 3 1 0 2 4 4 2 1 1 3 3 4 3 4 7 4 4 6 8 10
8 3 7 5 10 3 3 6 4 2 5 3 4 2 6 6 5 5 5 2 3 1 3 3 2 1 3 3 3 2 5 2 1 3 4 4 5 3 6 4 4 8 9 10 11
2 4 3 2 5 3 3 6 5 4 4 4 5 4 2 3 3 3 4 3 2 3 1 3 2 3 3 6 4 4 3 2 2 2 3 4 2 0 4 1 7 9 8 9 11
3 3 2 3 3 1 4 3 1 6 1 1 1 2 4 5 4 3 4 1 3 4 3 2 1 3 0 2 2 2 3 6 3 4 2 3 5 1 1 3 5 8 8 8 9
3 3 1 1 3 4 2 4 4 3 3 3 2 3 1 4 3 3 6 3 5 3 4 5 2 3 2 2 2 4 6 5 2 1 8 3 2 2 3 5 3 7 8 9 10
3 4 2 2 1 3 3 3 3 2 2 2 3 3 4 3 2 4 4 3 4 0 4 3 2 5 6 3 3 4 7 11 9 5 5 11 11 4 8 7 4 5 7 9 8
1 2 1 4 1 5 2 1 2 3 2 1 2 3 4 3 3 4 3 5 1 1 2 1 4 3 10 13 12 14 12 12 16 17 9 1 7 5 7 7 4 5 7 8 9
2 3 2 4 6 4 5 3 6 2 4 3 3 7 3 2 1 5 4 3 2 2 3 0 2 2 7 10 10 12 13 14 18 20 16 18 22 13 1 1 3 4 6 8 10
1 1 2 4 2 3 3 5 3 7 1 3 4 4 5 3 5 6 5 4 3 3 5 3 2 2 3 1 7 8 7 9 7 7 13 14 10 0 1 3 3 5 6 8 10
Wind_Direction
5 1 360 356 351 348 344 339 331 330 334 292 282 280 298 307 314 254 231 106 193 252 152 152 149 149 152 141 148 183 235 241 238 212 196 146 200 161 104 236 202 198 268 87 149
1 359 357 355 351 348 345 338 330 327 325 325 297 284 304 323 301 269 129 159 154 154 208 193 161 163 164 159 170 214 233 245 250 217 239 177 243 198 212 215 221 217 194 151 162
357 354 351 352 350 346 341 341 336 325 319 322 326 294 306 323 288 183 170 182 150 131 149 179 145 187 185 176 182 182 243 228 227 234 260 260 248 233 245 256 242 241 212 180 184
350 347 347 347 344 342 339 335 335 327 318 320 329 308 321 287 304 124 189 193 152 144 167 170 186 187 211 208 179 233 246 237 262 144 222 248 286 251 240 256 291 266 211 181 193
344 342 343 343 340 339 335 330 327 323 317 316 326 339 310 247 267 136 146 166 152 183 182 199 221 211 224 203 196 237 256 244 251 257 257 265 257 264 262 258 252 222 199 204 207
338 335 337 339 335 335 332 325 322 316 309 303 312 293 253 270 89 157 148 169 184 179 158 190 228 215 233 232 224 341 271 274 269 260 251 247 264 241 253 292 239 233 234 224 216
330 332 333 333 331 328 328 322 317 309 300 285 293 243 246 254 47 176 205 148 147 221 180 144 174 213 173 211 216 288 287 275 253 259 232 222 255 233 264 243 252 237 237 226 215
327 328 328 328 328 325 325 320 316 307 285 258 224 194 255 70 319 230 176 141 120 86 88 105 119 133 243 117 203 248 253 273 128 165 151 211 262 177 177 221 237 229 223 218 207
329 327 322 324 326 325 322 318 311 300 243 251 164 225 253 110 217 211 208 176 129 104 84 94 110 233 179 222 226 210 260 237 260 205 190 219 275 219 185 216 246 253 249 217 195
323 323 324 318 325 326 324 314 296 219 109 147 155 220 229 151 135 136 131 158 145 135 138 203 195 217 205 207 236 205 225 233 255 155 224 257 263 272 274 266 266 268 252 220 153
314 317 321 325 322 326 330 317 229 211 216 233 227 257 160 120 155 157 154 150 134 213 219 183 232 217 208 219 276 262 255 269 272 264 288 270 275 277 281 275 269 264 244 164 183
316 314 314 318 315 322 316 283 339 9 289 248 245 247 251 175 197 172 170 197 197 220 179 200 236 266 197 203 221 240 268 270 283 266 258 287 284 294 304 299 312 294 254 158 164
343 345 331 320 313 289 308 288 340 327 257 251 210 207 206 183 214 179 178 183 226 212 213 255 76 120 167 182 214 238 252 274 281 306 253 294 274 218 146 113 68 88 133 170 134
322 310 329 351 298 318 277 135 316 290 275 188 198 178 146 160 178 126 175 205 200 239 206 258 92 236 212 233 218 247 212 245 252 296 284 357 290 220 191 170 191 165 173 186 337
312 307 308 52 298 283 318 254 151 203 271 138 150 119 144 182 131 150 116 186 226 188 207 71 194 208 235 256 192 2 142 233 253 264 303 179 239 169 174 224 200 206 205 299 318
332 319 295 263 184 256 244 208 217 195 243 173 141 167 153 166 142 126 164 136 58 185 230 269 268 255 272 96 170 135 179 196 190 212 239 143 233 188 170 189 195 203 229 322 326
325 312 290 260 261 104 260 201 210 215 79 175 191 176 182 154 147 177 159 171 209 191 206 189 199 148 208 195 166 206 223 235 218 205 287 162 230 291 192 209 224 214 295 320 325
328 319 277 252 223 146 234 234 215 221 242 54 107 145 186 144 145 156 166 186 155 147 170 247 198 186 160 255 234 185 236 279 280 271 359 169 237 154 235 229 197 271 295 315 332
328 316 271 244 212 152 206 229 274 220 159 148 56 184 159 158 164 181 207 175 124 178 216 188 203 122 66 149 287 148 209 20 292 171 265 232 230 201 220 238 237 319 339 333 330
326 301 269 285 167 171 206 236 263 296 238 157 172 262 201 166 189 192 180 102 140 176 260 173 245 192 122 169 78 279 136 163 163 252 249 227 259 251 194 213 275 328 333 330 328
337 314 333 317 192 238 221 213 265 223 280 267 173 153 169 148 195 181 150 127 148 141 92 148 258 138 201 203 177 158 188 148 328 236 278 293 178 130 164 244 310 318 313 322 321
343 286 0 324 207 228 237 230 292 224 134 272 294 115 156 166 170 181 161 82 157 162 141 94 143 251 9 73 345 285 212 185 232 172 234 297 274 148 210 313 302 292 311 317 322
314 277 270 37 212 205 255 256 262 253 196 195 136 74 321 148 166 195 129 118 159 177 166 166 197 273 184 121 187 229 199 201 103 304 219 232 264 176 250 309 269 285 322 330 333
314 308 288 249 260 309 190 253 249 33 151 73 93 92 158 146 90 162 129 168 183 166 169 160 201 251 266 31 103 201 204 203 205 222 239 234 272 224 256 316 314 317 338 331 334
334 303 224 296 271 247 295 240 223 215 48 91 172 230 161 150 142 175 127 134 149 28 68 247 257 213 268 275 257 257 245 216 215 232 237 299 251 274 298 313 299 316 327 340 345
286 298 303 279 299 263 244 218 238 175 198 193 228 175 164 156 156 180 137 158 205 104 190 16 268 288 288 273 260 256 254 248 230 242 252 260 275 291 40 243 277 340 344 346 341
213 333 304 277 277 264 244 246 229 148 202 16 171 134 139 92 87 81 80 86 120 171 192 206 257 264 274 296 308 263 241 229 237 231 236 244 268 90 245 256 333 352 343 338 332